User: anonymous   Login
Location: Baumgartsau
(48.4586°N, 14.0864°E)
Time: 10:13:12
(UTC+00:00)
Language:

BREEZE M DEB (TANK) - Orbit

View from above orbital plane
View from above orbital plane
View from above satellite
View from above satellite

Ground track
Ground track

The orbit data is extracted from the following two-line orbital elements,

1 28359U 04022B   21169.03352614  .00002450  00000-0  32904-3 0  9990
2 28359  49.5324  16.5252 4637731  41.1122 345.9626  6.25123548376310
Epoch (UTC): 18 June 2021 00:48:16
Eccentricity: 0.4637731
inclination: 49.5324°
perigee height: 296 km
apogee height: 11842 km
right ascension of ascending node: 16.5252°
argument of perigee: 41.1122°
revolutions per day: 6.25123548
mean anomaly at epoch: 345.9626°
orbit number at epoch: 37631

The dashed part of the orbit path shows where the satellite is in the earth's shadow,  

DLR